Regional Weather Roundup
Issued by NWS Little Rock, AR

Home | Current Version | Previous Version | Text Only | Print | Product List | Glossary Off
Versions: 1 2 3 4 5 6 7 8 9 10 11 12 13 14 15 16 17 18 19 20 21 22 23 24 25 26 27 28 29 30 31 32

000
ASUS44 KLZK 211205
RWRLZK

WEATHER ROUNDUP FOR ARKANSAS
NATIONAL WEATHER SERVICE LITTLE ROCK AR
700 AM CDT WED JUN 21 2017

NOTE: "FAIR" INDICATES FEW OR NO CLOUDS BELOW 12,000 FEET WITH NO
SIGNIFICANT WEATHER AND/OR OBSTRUCTIONS TO VISIBILITY.

ARZ001-003-010-029-211300-
NORTHWEST ARKANSAS

CITY           SKY/WX    TMP DP  RH WIND       PRES   REMARKS
FAYETTEVILLE   SUNNY     62  61  96 CALM      30.02R
6HR MIN TEMP:  59; 6HR MAX TEMP:  64;

FORT SMITH     CLEAR     70  64  83 NE6       29.98
HARRISON       SUNNY     65  63  93 SE3       30.03R
6HR MIN TEMP:  63; 6HR MAX TEMP:  69;

BENTONVILLE    SUNNY     66  61  82 CALM      30.02S
6HR MIN TEMP:  64; 6HR MAX TEMP:  72;

ROGERS         SUNNY     68  62  81 SE6       30.03R
6HR MIN TEMP:  65; 6HR MAX TEMP:  71;

SILOAM SPGS    CLEAR     64  61  88 CALM      30.01R
6HR MIN TEMP:  63; 6HR MAX TEMP:  66;

HIGHFILL       SUNNY     66  63  90 CALM      30.01
6HR MIN TEMP:  62; 6HR MAX TEMP:  69;

SPRINGDALE     SUNNY     68  63  83 CALM      30.03S
$$

ARZ004-005-016-211300-
NORTH CENTRAL ARKANSAS

CITY           SKY/WX    TMP DP  RH WIND       PRES   REMARKS
BATESVILLE     MOSUNNY   64  63  94 CALM      30.00R
6HR MIN TEMP:  64; 6HR MAX TEMP:  70;

FLIPPIN        SUNNY     64  57  77 CALM      29.99R
6HR MIN TEMP:  63; 6HR MAX TEMP:  70;

MTN HOME       SUNNY     67  63  87 SW3       30.01R
6HR MIN TEMP:  63; 6HR MAX TEMP:  69;

$$

ARZ040-041-211300-
WEST CENTRAL ARKANSAS

CITY           SKY/WX    TMP DP  RH WIND       PRES   REMARKS
MENA           PTCLDY    63  63 100 CALM      30.00S
MOUNT IDA      CLOUDY    63  61  93 CALM      29.96R FOG
6HR MIN TEMP:  62; 6HR MAX TEMP:  68;

$$

ARZ009-017-025-026-028-211300-
NORTHEAST ARKANSAS

CITY           SKY/WX    TMP DP  RH WIND       PRES   REMARKS
CORNING        FAIR      73  73 100 CALM      30.00R
JONESBORO      CLOUDY    71  70  96 CALM      30.00R
6HR MIN TEMP:  68; 6HR MAX TEMP:  75;

WALNUT RIDGE   CLOUDY    72  66  83 CALM      30.00R
6HR MIN TEMP:  70; 6HR MAX TEMP:  75;

BLYTHEVILLE    CLOUDY    74  68  81 S6        30.00R
6HR MIN TEMP:  72; 6HR MAX TEMP:  76;

$$

ARZ022-023-033-042-044-211300-
CENTRAL ARKANSAS

CITY           SKY/WX    TMP DP  RH WIND       PRES   REMARKS
LITTLE ROCK    PTSUNNY   70  68  93 CALM      29.98R
6HR MIN TEMP:  67; 6HR MAX TEMP:  73;

N LITTLE ROCK    N/A     71  66  83 CALM      29.97R
6HR MIN TEMP:  69; 6HR MAX TEMP:  73;

JACKSONVILLE   MOSUNNY   68  68  99 CALM      29.97S
6HR MIN TEMP:  66; 6HR MAX TEMP:  70;

CONWAY           N/A     68  68 100 CALM      29.97R
SEARCY         MOSUNNY   70  69  97 N3        30.00S
6HR MIN TEMP:  67; 6HR MAX TEMP:  70;

HOT SPRINGS    CLOUDY    67  66  97 CALM      29.97R
6HR MIN TEMP:  66; 6HR MAX TEMP:  72;

RUSSELLVILLE   SUNNY     68  66  93 CALM      29.97S
6HR MIN TEMP:  64; 6HR MAX TEMP:  68;

CLINTON        FAIR      63  63 100 CALM      30.00F
$$

ARZ036-211300-
EAST ARKANSAS

CITY           SKY/WX    TMP DP  RH WIND       PRES   REMARKS
WEST MEMPHIS   CLOUDY    72  72 100 SE5       29.99R
6HR MIN TEMP:  69; 6HR MAX TEMP:  73;

$$

ARZ050-053-066-070-073-211300-
SOUTHWEST ARKANSAS

CITY           SKY/WX    TMP DP  RH WIND       PRES   REMARKS
ARKADELPHIA    FAIR      68  67  96 NE3       29.97R
6HR MIN TEMP:  65; 6HR MAX TEMP:  70;

CAMDEN         CLOUDY    68  64  88 CALM      29.94S
TEXARKANA      PTCLDY    67  67 100 NE5       29.94R
6HR MIN TEMP:  65; 6HR MAX TEMP:  70;

EL DORADO      MOSUNNY   70  69  97 NE6       29.92S
6HR MIN TEMP:  67; 6HR MAX TEMP:  73;

DE QUEEN       PTCLDY    64  64 100 CALM      29.94R FOG
6HR MIN TEMP:  64; 6HR MAX TEMP:  68;

$$

ARZ056-057-069-211300-
SOUTHEAST ARKANSAS

CITY           SKY/WX    TMP DP  RH WIND       PRES   REMARKS
PINE BLUFF     PTSUNNY   69  68  96 NE5       29.96S
6HR MIN TEMP:  66; 6HR MAX TEMP:  72;

STUTTGART      PTSUNNY   72  59  64 E6        29.99R
6HR MIN TEMP:  72; 6HR MAX TEMP:  79;

MONTICELLO     CLOUDY    71  69  93 NE5       29.94S FOG
6HR MIN TEMP:  68; 6HR MAX TEMP:  72;


$$






USA.gov is the U.S. government's official web portal to all federal, state and local government web resources and services.